Regional Weather Roundup
Issued by NWS Cleveland, OH

Home | Current Version | Previous Version | Graphics & Text | Print | Product List | Glossary On
Versions: 1 2 3 4 5 6 7 8 9 10 11 12 13 14 15 16 17 18 19 20 21 22 23 24 25 26 27 28 29 30 31 32 33 34 35 36 37 38 39 40 41 42 43 44 45 46 47 48 49 50
000
ASUS41 KCLE 050610
RWRCLE
OHIO REGIONAL WEATHER ROUNDUP
NATIONAL WEATHER SERVICE CLEVELAND, OH
200 AM EDT THU MAY 05 2016

NOTE: "FAIR" INDICATES FEW OR NO CLOUDS BELOW 12,000 FEET WITH NO
SIGNIFICANT WEATHER AND/OR OBSTRUCTIONS TO VISIBILITY.

OHZ001>008-015>018-024>027-034-035-043-044-050700-
   NORTHWEST OHIO

CITY           SKY/WX    TMP DP  RH WIND       PRES   REMARKS
DEFIANCE       MOCLDY    42  37  82 N3        29.75R
FINDLAY        CLOUDY    44  37  76 NW7       29.73R
TOLEDO EXPRESS CLOUDY    43  39  86 NW6       29.73S
TOLEDO EXEC    LGT RAIN  45  42  89 NW8       29.74R
LIMA           CLOUDY    41  38  89 NW5       29.73S
$$

OHZ009>014-019>023-028>033-038-089-050700-
   NORTHEAST OHIO

CITY           SKY/WX    TMP DP  RH WIND       PRES   REMARKS
CLE-HOPKINS    CLOUDY    49  47  93 NW5       29.72R
CLE-LAKEFRONT  CLOUDY    50  47  89 W10       29.70R
CUY CO. ARPT   NOT AVBL
LORAIN-ELYRIA  LGT RAIN  47  44  90 NW6       29.71S
ASHTABULA      CLOUDY    47  44  90 S5        29.68S
AKRON-CANTON   LGT RAIN  49  46  90 NW6       29.68S FOG
WOOSTER        LGT RAIN  46  44  93 NW9       29.69F
MANSFIELD      CLOUDY    44  42  93 NW5       29.70S
YOUNGSTOWN     CLOUDY    49  45  86 CALM      29.68S
$$

OHZ042-051>053-060>062-070>072-077>081-050700-
  SOUTHWEST OHIO

CITY           SKY/WX    TMP DP  RH WIND       PRES   REMARKS
CINC-COVINGTON LGT RAIN  45  36  70 W5        29.74F
CINC-LUNKEN    LGT RAIN  46  38  73 W6        29.76F
HAMILTON       LGT RAIN  44  38  79 NW8       29.75F
DAYTON         CLOUDY    40  36  86 NW6       29.74S
WRIGHT-PAT AFB CLOUDY    43  35  73 W7        29.73S
DAYTON GENERAL CLOUDY    42  35  76 NW7       29.73S
WILMINGTON     PTCLDY    41  36  82 W6        29.72S
$$

OHZ036-037-039>041-045>050-054>059-063>069-073>076-082>088-050700-
  CENTRAL AND SOUTHEAST OHIO

CITY           SKY/WX    TMP DP  RH WIND       PRES   REMARKS
COLUMBUS       PTCLDY    41  36  82 NE3       29.71F
OSU AIRPORT    CLOUDY    44  36  73 NW6       29.72S
BOLTON FIELD   CLOUDY    45  37  76 NW3       29.72S
RICKENBACK AFB CLOUDY    44  36  72 N3        29.72S
NEWARK         PTCLDY    44  38  79 NW7       29.70F
MARION         MOCLDY    42  38  85 NW3       29.73R
LANCASTER      MOCLDY    41  36  82 W3        29.72S
ZANESVILLE     LGT RAIN  48  44  86 NW6       29.69F
NEW PHILLY     LGT RAIN  48  46  93 W5        29.69S
$$




USA.gov is the U.S. government's official web portal to all federal, state and local government web resources and services.